owner,sensor,date,latitude,longitude,air_temperature,qcFlag 
COMPS,ioos:station:USF.COMPS:ANC:1,2011-04-01T01:00:00Z,28.1930,-82.7890,21.75,1111122 
COMPS,ioos:station:USF.COMPS:ANC:1,2011-04-01T01:06:00Z,28.1930,-82.7890,21.7,1111122 
COMPS,ioos:station:USF.COMPS:ANC:1,2011-04-01T01:12:00Z,28.1930,-82.7890,21.64,1111122 
COMPS,ioos:station:USF.COMPS:ANC:1,2011-04-01T01:18:00Z,28.1930,-82.7890,21.65,1111122 
COMPS,ioos:station:USF.COMPS:ANC:1,2011-04-01T01:24:00Z,28.1930,-82.7890,21.79,1111122 
COMPS,ioos:station:USF.COMPS:ANC:1,2011-04-01T01:30:00Z,28.1930,-82.7890,21.57,1111122 
COMPS,ioos:station:USF.COMPS:ANC:1,2011-04-01T01:36:00Z,28.1930,-82.7890,21.43,1111122 
COMPS,ioos:station:USF.COMPS:ANC:1,2011-04-01T01:42:00Z,28.1930,-82.7890,21.36,1111122 
COMPS,ioos:station:USF.COMPS:ANC:1,2011-04-01T01:48:00Z,28.1930,-82.7890,21.34,1111122 
COMPS,ioos:station:USF.COMPS:ANC:1,2011-04-01T01:54:00Z,28.1930,-82.7890,21.34,1111122 
COMPS,ioos:station:USF.COMPS:ANC:1,2011-04-01T05:00:00Z,28.1930,-82.7890,20.01,1111122 
COMPS,ioos:station:USF.COMPS:ANC:1,2011-04-01T05:06:00Z,28.1930,-82.7890,19.98,1111122 
COMPS,ioos:station:USF.COMPS:ANC:1,2011-04-01T05:12:00Z,28.1930,-82.7890,20.01,1111122 
COMPS,ioos:station:USF.COMPS:ANC:1,2011-04-01T05:18:00Z,28.1930,-82.7890,20.03,1111122 
COMPS,ioos:station:USF.COMPS:ANC:1,2011-04-01T05:24:00Z,28.1930,-82.7890,20.05,1111122 
COMPS,ioos:station:USF.COMPS:ANC:1,2011-04-01T05:30:00Z,28.1930,-82.7890,19.95,1111122 
COMPS,ioos:station:USF.COMPS:ANC:1,2011-04-01T05:36:00Z,28.1930,-82.7890,19.87,1111122 
COMPS,ioos:station:USF.COMPS:ANC:1,2011-04-01T05:42:00Z,28.1930,-82.7890,19.96,1111122 
COMPS,ioos:station:USF.COMPS:ANC:1,2011-04-01T05:48:00Z,28.1930,-82.7890,20.0,1111122 
COMPS,ioos:station:USF.COMPS:ANC:1,2011-04-01T05:54:00Z,28.1930,-82.7890,19.97,1111122 
COMPS,ioos:station:USF.COMPS:ANC:1,2011-04-01T06:00:00Z,28.1930,-82.7890,19.92,1111122 
COMPS,ioos:station:USF.COMPS:ANC:1,2011-04-01T06:06:00Z,28.1930,-82.7890,19.92,1111122 
COMPS,ioos:station:USF.COMPS:ANC:1,2011-04-01T06:12:00Z,28.1930,-82.7890,19.98,1111122 
COMPS,ioos:station:USF.COMPS:ANC:1,2011-04-01T06:18:00Z,28.1930,-82.7890,19.95,1111122 
COMPS,ioos:station:USF.COMPS:ANC:1,2011-04-01T06:24:00Z,28.1930,-82.7890,19.93,1111122 
COMPS,ioos:station:USF.COMPS:ANC:1,2011-04-01T06:30:00Z,28.1930,-82.7890,19.99,1111122 
COMPS,ioos:station:USF.COMPS:ANC:1,2011-04-01T06:36:00Z,28.1930,-82.7890,20.01,1111122 
COMPS,ioos:station:USF.COMPS:ANC:1,2011-04-01T06:42:00Z,28.1930,-82.7890,19.82,1111122 
COMPS,ioos:station:USF.COMPS:ANC:1,2011-04-01T06:48:00Z,28.1930,-82.7890,19.9,1111122 
COMPS,ioos:station:USF.COMPS:ANC:1,2011-04-01T06:54:00Z,28.1930,-82.7890,19.94,1111122 
COMPS,ioos:station:USF.COMPS:ANC:1,2011-04-01T09:00:00Z,28.1930,-82.7890,19.71,1111122 
COMPS,ioos:station:USF.COMPS:ANC:1,2011-04-01T09:06:00Z,28.1930,-82.7890,19.74,1111122 
COMPS,ioos:station:USF.COMPS:ANC:1,2011-04-01T09:12:00Z,28.1930,-82.7890,19.7,1111122 
COMPS,ioos:station:USF.COMPS:ANC:1,2011-04-01T09:18:00Z,28.1930,-82.7890,19.62,1111122 
COMPS,ioos:station:USF.COMPS:ANC:1,2011-04-01T09:24:00Z,28.1930,-82.7890,19.63,1111122 
COMPS,ioos:station:USF.COMPS:ANC:1,2011-04-01T09:30:00Z,28.1930,-82.7890,19.65,1111122 
COMPS,ioos:station:USF.COMPS:ANC:1,2011-04-01T09:36:00Z,28.1930,-82.7890,19.64,1111122 
COMPS,ioos:station:USF.COMPS:ANC:1,2011-04-01T09:42:00Z,28.1930,-82.7890,19.48,1111122 
COMPS,ioos:station:USF.COMPS:ANC:1,2011-04-01T09:48:00Z,28.1930,-82.7890,19.52,1111122 
COMPS,ioos:station:USF.COMPS:ANC:1,2011-04-01T09:54:00Z,28.1930,-82.7890,19.49,1111122 
COMPS,ioos:station:USF.COMPS:ANC:1,2011-04-01T12:00:00Z,28.1930,-82.7890,19.88,1111122 
COMPS,ioos:station:USF.COMPS:ANC:1,2011-04-01T12:06:00Z,28.1930,-82.7890,20.0,1111122 
COMPS,ioos:station:USF.COMPS:ANC:1,2011-04-01T12:12:00Z,28.1930,-82.7890,19.89,1111122 
COMPS,ioos:station:USF.COMPS:ANC:1,2011-04-01T12:18:00Z,28.1930,-82.7890,19.92,1111122 
COMPS,ioos:station:USF.COMPS:ANC:1,2011-04-01T12:24:00Z,28.1930,-82.7890,20.0,1111122 
COMPS,ioos:station:USF.COMPS:ANC:1,2011-04-01T12:30:00Z,28.1930,-82.7890,19.96,1111122 
COMPS,ioos:station:USF.COMPS:ANC:1,2011-04-01T12:36:00Z,28.1930,-82.7890,19.94,1111122 
COMPS,ioos:station:USF.COMPS:ANC:1,2011-04-01T12:42:00Z,28.1930,-82.7890,19.99,1111122 
COMPS,ioos:station:USF.COMPS:ANC:1,2011-04-01T12:48:00Z,28.1930,-82.7890,19.91,1111122 
COMPS,ioos:station:USF.COMPS:ANC:1,2011-04-01T12:54:00Z,28.1930,-82.7890,20.08,1111122 
COMPS,ioos:station:USF.COMPS:ANC:1,2011-04-01T16:00:00Z,28.1930,-82.7890,18.68,1111122 
COMPS,ioos:station:USF.COMPS:ANC:1,2011-04-01T16:06:00Z,28.1930,-82.7890,18.76,1111122 
COMPS,ioos:station:USF.COMPS:ANC:1,2011-04-01T16:12:00Z,28.1930,-82.7890,18.84,1111122 
COMPS,ioos:station:USF.COMPS:ANC:1,2011-04-01T16:18:00Z,28.1930,-82.7890,18.78,1111122 
COMPS,ioos:station:USF.COMPS:ANC:1,2011-04-01T16:24:00Z,28.1930,-82.7890,18.9,1111122 
COMPS,ioos:station:USF.COMPS:ANC:1,2011-04-01T16:30:00Z,28.1930,-82.7890,18.98,1111122 
COMPS,ioos:station:USF.COMPS:ANC:1,2011-04-01T16:36:00Z,28.1930,-82.7890,18.91,1111122 
COMPS,ioos:station:USF.COMPS:ANC:1,2011-04-01T16:42:00Z,28.1930,-82.7890,18.94,1111122 
COMPS,ioos:station:USF.COMPS:ANC:1,2011-04-01T16:48:00Z,28.1930,-82.7890,19.04,1111122 
COMPS,ioos:station:USF.COMPS:ANC:1,2011-04-01T16:54:00Z,28.1930,-82.7890,18.97,1111122 
COMPS,ioos:station:USF.COMPS:ANC:1,2011-04-01T18:00:00Z,28.1930,-82.7890,19.93,1111122 
COMPS,ioos:station:USF.COMPS:ANC:1,2011-04-01T18:06:00Z,28.1930,-82.7890,20.29,1111122 
COMPS,ioos:station:USF.COMPS:ANC:1,2011-04-01T18:12:00Z,28.1930,-82.7890,20.38,1111122 
COMPS,ioos:station:USF.COMPS:ANC:1,2011-04-01T18:18:00Z,28.1930,-82.7890,20.38,1111122 
COMPS,ioos:station:USF.COMPS:ANC:1,2011-04-01T18:24:00Z,28.1930,-82.7890,20.3,1111122 
COMPS,ioos:station:USF.COMPS:ANC:1,2011-04-01T18:30:00Z,28.1930,-82.7890,20.35,1111122 
COMPS,ioos:station:USF.COMPS:ANC:1,2011-04-01T18:36:00Z,28.1930,-82.7890,20.2,1111122 
COMPS,ioos:station:USF.COMPS:ANC:1,2011-04-01T18:42:00Z,28.1930,-82.7890,20.19,1111122 
COMPS,ioos:station:USF.COMPS:ANC:1,2011-04-01T18:48:00Z,28.1930,-82.7890,20.27,1111122 
COMPS,ioos:station:USF.COMPS:ANC:1,2011-04-01T18:54:00Z,28.1930,-82.7890,20.25,1111122 
COMPS,ioos:station:USF.COMPS:ANC:1,2011-04-01T21:00:00Z,28.1930,-82.7890,21.0,1111122 
COMPS,ioos:station:USF.COMPS:ANC:1,2011-04-01T21:06:00Z,28.1930,-82.7890,21.08,1111122 
COMPS,ioos:station:USF.COMPS:ANC:1,2011-04-01T21:12:00Z,28.1930,-82.7890,21.05,1111122 
COMPS,ioos:station:USF.COMPS:ANC:1,2011-04-01T21:18:00Z,28.1930,-82.7890,21.09,1111122 
COMPS,ioos:station:USF.COMPS:ANC:1,2011-04-01T21:24:00Z,28.1930,-82.7890,21.12,1111122 
COMPS,ioos:station:USF.COMPS:ANC:1,2011-04-01T21:30:00Z,28.1930,-82.7890,21.12,1111122 
COMPS,ioos:station:USF.COMPS:ANC:1,2011-04-01T21:36:00Z,28.1930,-82.7890,21.16,1111122 
COMPS,ioos:station:USF.COMPS:ANC:1,2011-04-01T21:42:00Z,28.1930,-82.7890,21.17,1111122 
COMPS,ioos:station:USF.COMPS:ANC:1,2011-04-01T21:48:00Z,28.1930,-82.7890,21.22,1111122 
COMPS,ioos:station:USF.COMPS:ANC:1,2011-04-01T21:54:00Z,28.1930,-82.7890,21.21,1111122 
COMPS,ioos:station:USF.COMPS:ANC:1,2011-04-02T00:00:00Z,28.1930,-82.7890,21.08,1111122 
COMPS,ioos:station:USF.COMPS:ANC:1,2011-04-02T00:06:00Z,28.1930,-82.7890,21.0,1111122 
COMPS,ioos:station:USF.COMPS:ANC:1,2011-04-02T00:12:00Z,28.1930,-82.7890,21.08,1111122 
COMPS,ioos:station:USF.COMPS:ANC:1,2011-04-02T00:18:00Z,28.1930,-82.7890,20.98,1111122 
COMPS,ioos:station:USF.COMPS:ANC:1,2011-04-02T00:24:00Z,28.1930,-82.7890,21.13,1111122 
COMPS,ioos:station:USF.COMPS:ANC:1,2011-04-02T00:30:00Z,28.1930,-82.7890,21.08,1111122 
COMPS,ioos:station:USF.COMPS:ANC:1,2011-04-02T00:36:00Z,28.1930,-82.7890,20.99,1111122 
COMPS,ioos:station:USF.COMPS:ANC:1,2011-04-02T00:42:00Z,28.1930,-82.7890,20.94,1111122 
COMPS,ioos:station:USF.COMPS:ANC:1,2011-04-02T00:48:00Z,28.1930,-82.7890,20.94,1111122 
COMPS,ioos:station:USF.COMPS:ANC:1,2011-04-02T00:54:00Z,28.1930,-82.7890,20.97,1111122 
COMPS,ioos:station:USF.COMPS:ANC:1,2011-04-02T03:00:00Z,28.1930,-82.7890,21.09,1111122 
COMPS,ioos:station:USF.COMPS:ANC:1,2011-04-02T03:06:00Z,28.1930,-82.7890,21.09,1111122 
COMPS,ioos:station:USF.COMPS:ANC:1,2011-04-02T03:12:00Z,28.1930,-82.7890,21.08,1111122 
COMPS,ioos:station:USF.COMPS:ANC:1,2011-04-02T03:18:00Z,28.1930,-82.7890,21.05,1111122 
COMPS,ioos:station:USF.COMPS:ANC:1,2011-04-02T03:24:00Z,28.1930,-82.7890,21.17,1111122 
COMPS,ioos:station:USF.COMPS:ANC:1,2011-04-02T03:30:00Z,28.1930,-82.7890,21.16,1111122 
COMPS,ioos:station:USF.COMPS:ANC:1,2011-04-02T03:36:00Z,28.1930,-82.7890,21.11,1111122 
COMPS,ioos:station:USF.COMPS:ANC:1,2011-04-02T03:42:00Z,28.1930,-82.7890,21.11,1111122 
COMPS,ioos:station:USF.COMPS:ANC:1,2011-04-02T03:48:00Z,28.1930,-82.7890,21.18,1111122 
COMPS,ioos:station:USF.COMPS:ANC:1,2011-04-02T03:54:00Z,28.1930,-82.7890,21.13,1111122 
COMPS,ioos:station:USF.COMPS:ANC:1,2011-04-02T06:00:00Z,28.1930,-82.7890,17.94,1111122 
COMPS,ioos:station:USF.COMPS:ANC:1,2011-04-02T06:06:00Z,28.1930,-82.7890,17.96,1111122 
COMPS,ioos:station:USF.COMPS:ANC:1,2011-04-02T06:12:00Z,28.1930,-82.7890,17.87,1111122 
COMPS,ioos:station:USF.COMPS:ANC:1,2011-04-02T06:18:00Z,28.1930,-82.7890,17.39,1111122 
COMPS,ioos:station:USF.COMPS:ANC:1,2011-04-02T06:24:00Z,28.1930,-82.7890,17.34,1111122 
COMPS,ioos:station:USF.COMPS:ANC:1,2011-04-02T06:30:00Z,28.1930,-82.7890,17.29,1111122 
COMPS,ioos:station:USF.COMPS:ANC:1,2011-04-02T06:36:00Z,28.1930,-82.7890,17.09,1111122 
COMPS,ioos:station:USF.COMPS:ANC:1,2011-04-02T06:42:00Z,28.1930,-82.7890,16.94,1111122 
COMPS,ioos:station:USF.COMPS:ANC:1,2011-04-02T06:48:00Z,28.1930,-82.7890,16.79,1111122 
COMPS,ioos:station:USF.COMPS:ANC:1,2011-04-02T06:54:00Z,28.1930,-82.7890,16.76,1111122 
COMPS,ioos:station:USF.COMPS:ANC:1,2011-04-02T09:00:00Z,28.1930,-82.7890,17.06,1111122 
COMPS,ioos:station:USF.COMPS:ANC:1,2011-04-02T09:06:00Z,28.1930,-82.7890,17.06,1111122 
COMPS,ioos:station:USF.COMPS:ANC:1,2011-04-02T09:12:00Z,28.1930,-82.7890,17.01,1111122 
COMPS,ioos:station:USF.COMPS:ANC:1,2011-04-02T09:18:00Z,28.1930,-82.7890,17.2,1111122 
COMPS,ioos:station:USF.COMPS:ANC:1,2011-04-02T09:24:00Z,28.1930,-82.7890,17.0,1111122 
COMPS,ioos:station:USF.COMPS:ANC:1,2011-04-02T09:30:00Z,28.1930,-82.7890,17.5,1111122 
COMPS,ioos:station:USF.COMPS:ANC:1,2011-04-02T09:36:00Z,28.1930,-82.7890,17.52,1111122 
COMPS,ioos:station:USF.COMPS:ANC:1,2011-04-02T09:42:00Z,28.1930,-82.7890,17.71,1111122 
COMPS,ioos:station:USF.COMPS:ANC:1,2011-04-02T09:48:00Z,28.1930,-82.7890,18.17,1111122 
COMPS,ioos:station:USF.COMPS:ANC:1,2011-04-02T09:54:00Z,28.1930,-82.7890,18.6,1111122 
COMPS,ioos:station:USF.COMPS:ANC:1,2011-04-02T12:00:00Z,28.1930,-82.7890,20.91,1111122 
COMPS,ioos:station:USF.COMPS:ANC:1,2011-04-02T12:06:00Z,28.1930,-82.7890,20.96,1111122 
COMPS,ioos:station:USF.COMPS:ANC:1,2011-04-02T12:12:00Z,28.1930,-82.7890,21.02,1111122 
COMPS,ioos:station:USF.COMPS:ANC:1,2011-04-02T12:18:00Z,28.1930,-82.7890,21.04,1111122 
COMPS,ioos:station:USF.COMPS:ANC:1,2011-04-02T12:24:00Z,28.1930,-82.7890,20.99,1111122 
COMPS,ioos:station:USF.COMPS:ANC:1,2011-04-02T12:30:00Z,28.1930,-82.7890,21.07,1111122 
COMPS,ioos:station:USF.COMPS:ANC:1,2011-04-02T12:36:00Z,28.1930,-82.7890,21.08,1111122 
COMPS,ioos:station:USF.COMPS:ANC:1,2011-04-02T12:42:00Z,28.1930,-82.7890,21.14,1111122 
COMPS,ioos:station:USF.COMPS:ANC:1,2011-04-02T12:48:00Z,28.1930,-82.7890,21.15,1111122 
COMPS,ioos:station:USF.COMPS:ANC:1,2011-04-02T12:54:00Z,28.1930,-82.7890,21.08,1111122 
COMPS,ioos:station:USF.COMPS:ANC:1,2011-04-02T15:00:00Z,28.1930,-82.7890,21.41,1111122 
COMPS,ioos:station:USF.COMPS:ANC:1,2011-04-02T15:06:00Z,28.1930,-82.7890,21.37,1111122 
COMPS,ioos:station:USF.COMPS:ANC:1,2011-04-02T15:12:00Z,28.1930,-82.7890,21.34,1111122 
COMPS,ioos:station:USF.COMPS:ANC:1,2011-04-02T15:18:00Z,28.1930,-82.7890,21.43,1111122 
COMPS,ioos:station:USF.COMPS:ANC:1,2011-04-02T15:24:00Z,28.1930,-82.7890,21.35,1111122 
COMPS,ioos:station:USF.COMPS:ANC:1,2011-04-02T15:30:00Z,28.1930,-82.7890,21.35,1111122 
COMPS,ioos:station:USF.COMPS:ANC:1,2011-04-02T15:36:00Z,28.1930,-82.7890,21.34,1111122 
COMPS,ioos:station:USF.COMPS:ANC:1,2011-04-02T15:42:00Z,28.1930,-82.7890,21.36,1111122 
COMPS,ioos:station:USF.COMPS:ANC:1,2011-04-02T15:48:00Z,28.1930,-82.7890,21.41,1111122 
COMPS,ioos:station:USF.COMPS:ANC:1,2011-04-02T15:54:00Z,28.1930,-82.7890,21.38,1111122 
COMPS,ioos:station:USF.COMPS:ANC:1,2011-04-02T17:00:00Z,28.1930,-82.7890,21.5,1111122 
COMPS,ioos:station:USF.COMPS:ANC:1,2011-04-02T17:06:00Z,28.1930,-82.7890,21.46,1111122 
COMPS,ioos:station:USF.COMPS:ANC:1,2011-04-02T17:12:00Z,28.1930,-82.7890,21.42,1111122 
COMPS,ioos:station:USF.COMPS:ANC:1,2011-04-02T17:18:00Z,28.1930,-82.7890,21.44,1111122 
COMPS,ioos:station:USF.COMPS:ANC:1,2011-04-02T17:24:00Z,28.1930,-82.7890,21.62,1111122 
COMPS,ioos:station:USF.COMPS:ANC:1,2011-04-02T17:30:00Z,28.1930,-82.7890,21.47,1111122 
COMPS,ioos:station:USF.COMPS:ANC:1,2011-04-02T17:36:00Z,28.1930,-82.7890,21.47,1111122 
COMPS,ioos:station:USF.COMPS:ANC:1,2011-04-02T17:42:00Z,28.1930,-82.7890,21.57,1111122 
COMPS,ioos:station:USF.COMPS:ANC:1,2011-04-02T17:48:00Z,28.1930,-82.7890,21.49,1111122 
COMPS,ioos:station:USF.COMPS:ANC:1,2011-04-02T17:54:00Z,28.1930,-82.7890,21.54,1111122 
COMPS,ioos:station:USF.COMPS:ANC:1,2011-04-02T20:00:00Z,28.1930,-82.7890,21.73,1111122 
COMPS,ioos:station:USF.COMPS:ANC:1,2011-04-02T20:06:00Z,28.1930,-82.7890,21.76,1111122 
COMPS,ioos:station:USF.COMPS:ANC:1,2011-04-02T20:12:00Z,28.1930,-82.7890,21.74,1111122 
COMPS,ioos:station:USF.COMPS:ANC:1,2011-04-02T20:18:00Z,28.1930,-82.7890,21.93,1111122 
COMPS,ioos:station:USF.COMPS:ANC:1,2011-04-02T20:24:00Z,28.1930,-82.7890,21.85,1111122 
COMPS,ioos:station:USF.COMPS:ANC:1,2011-04-02T20:30:00Z,28.1930,-82.7890,21.85,1111122 
COMPS,ioos:station:USF.COMPS:ANC:1,2011-04-02T20:36:00Z,28.1930,-82.7890,21.98,1111122 
COMPS,ioos:station:USF.COMPS:ANC:1,2011-04-02T20:42:00Z,28.1930,-82.7890,21.94,1111122 
COMPS,ioos:station:USF.COMPS:ANC:1,2011-04-02T20:48:00Z,28.1930,-82.7890,22.06,1111122 
COMPS,ioos:station:USF.COMPS:ANC:1,2011-04-02T20:54:00Z,28.1930,-82.7890,22.05,1111122 
COMPS,ioos:station:USF.COMPS:ANC:1,2011-04-02T23:00:00Z,28.1930,-82.7890,22.57,1111122 
COMPS,ioos:station:USF.COMPS:ANC:1,2011-04-02T23:06:00Z,28.1930,-82.7890,22.46,1111122 
COMPS,ioos:station:USF.COMPS:ANC:1,2011-04-02T23:12:00Z,28.1930,-82.7890,22.33,1111122 
COMPS,ioos:station:USF.COMPS:ANC:1,2011-04-02T23:18:00Z,28.1930,-82.7890,22.26,1111122 
COMPS,ioos:station:USF.COMPS:ANC:1,2011-04-02T23:24:00Z,28.1930,-82.7890,22.29,1111122 
COMPS,ioos:station:USF.COMPS:ANC:1,2011-04-02T23:30:00Z,28.1930,-82.7890,22.13,1111122 
COMPS,ioos:station:USF.COMPS:ANC:1,2011-04-02T23:36:00Z,28.1930,-82.7890,22.13,1111122 
COMPS,ioos:station:USF.COMPS:ANC:1,2011-04-02T23:42:00Z,28.1930,-82.7890,22.02,1111122 
COMPS,ioos:station:USF.COMPS:ANC:1,2011-04-02T23:48:00Z,28.1930,-82.7890,22.0,1111122 
COMPS,ioos:station:USF.COMPS:ANC:1,2011-04-02T23:54:00Z,28.1930,-82.7890,21.89,1111122 
COMPS,ioos:station:USF.COMPS:ANC:1,2011-04-03T02:00:00Z,28.1930,-82.7890,21.82,1111122 
COMPS,ioos:station:USF.COMPS:ANC:1,2011-04-03T02:06:00Z,28.1930,-82.7890,21.82,1111122 
COMPS,ioos:station:USF.COMPS:ANC:1,2011-04-03T02:12:00Z,28.1930,-82.7890,21.78,1111122 
COMPS,ioos:station:USF.COMPS:ANC:1,2011-04-03T02:18:00Z,28.1930,-82.7890,21.83,1111122 
COMPS,ioos:station:USF.COMPS:ANC:1,2011-04-03T02:24:00Z,28.1930,-82.7890,21.79,1111122 
COMPS,ioos:station:USF.COMPS:ANC:1,2011-04-03T02:30:00Z,28.1930,-82.7890,21.8,1111122 
COMPS,ioos:station:USF.COMPS:ANC:1,2011-04-03T02:36:00Z,28.1930,-82.7890,21.76,1111122 
COMPS,ioos:station:USF.COMPS:ANC:1,2011-04-03T02:42:00Z,28.1930,-82.7890,21.78,1111122 
COMPS,ioos:station:USF.COMPS:ANC:1,2011-04-03T02:48:00Z,28.1930,-82.7890,21.7,1111122 
COMPS,ioos:station:USF.COMPS:ANC:1,2011-04-03T02:54:00Z,28.1930,-82.7890,21.7,1111122 
COMPS,ioos:station:USF.COMPS:ANC:1,2011-04-03T05:00:00Z,28.1930,-82.7890,21.87,1111122 
COMPS,ioos:station:USF.COMPS:ANC:1,2011-04-03T05:06:00Z,28.1930,-82.7890,21.94,1111122 
COMPS,ioos:station:USF.COMPS:ANC:1,2011-04-03T05:12:00Z,28.1930,-82.7890,21.91,1111122 
COMPS,ioos:station:USF.COMPS:ANC:1,2011-04-03T05:18:00Z,28.1930,-82.7890,22.01,1111122 
COMPS,ioos:station:USF.COMPS:ANC:1,2011-04-03T05:24:00Z,28.1930,-82.7890,21.95,1111122 
COMPS,ioos:station:USF.COMPS:ANC:1,2011-04-03T05:30:00Z,28.1930,-82.7890,21.89,1111122 
COMPS,ioos:station:USF.COMPS:ANC:1,2011-04-03T05:36:00Z,28.1930,-82.7890,21.86,1111122 
COMPS,ioos:station:USF.COMPS:ANC:1,2011-04-03T05:42:00Z,28.1930,-82.7890,21.89,1111122 
COMPS,ioos:station:USF.COMPS:ANC:1,2011-04-03T05:48:00Z,28.1930,-82.7890,21.83,1111122 
COMPS,ioos:station:USF.COMPS:ANC:1,2011-04-03T05:54:00Z,28.1930,-82.7890,21.77,1111122 
COMPS,ioos:station:USF.COMPS:ANC:1,2011-04-03T08:00:00Z,28.1930,-82.7890,22.03,1111122 
COMPS,ioos:station:USF.COMPS:ANC:1,2011-04-03T08:06:00Z,28.1930,-82.7890,22.03,1111122 
COMPS,ioos:station:USF.COMPS:ANC:1,2011-04-03T08:12:00Z,28.1930,-82.7890,22.07,1111122 
COMPS,ioos:station:USF.COMPS:ANC:1,2011-04-03T08:18:00Z,28.1930,-82.7890,22.09,1111122 
COMPS,ioos:station:USF.COMPS:ANC:1,2011-04-03T08:24:00Z,28.1930,-82.7890,22.03,1111122 
COMPS,ioos:station:USF.COMPS:ANC:1,2011-04-03T08:30:00Z,28.1930,-82.7890,22.06,1111122 
COMPS,ioos:station:USF.COMPS:ANC:1,2011-04-03T08:36:00Z,28.1930,-82.7890,22.07,1111122 
COMPS,ioos:station:USF.COMPS:ANC:1,2011-04-03T08:42:00Z,28.1930,-82.7890,22.13,1111122 
COMPS,ioos:station:USF.COMPS:ANC:1,2011-04-03T08:48:00Z,28.1930,-82.7890,22.02,1111122 
COMPS,ioos:station:USF.COMPS:ANC:1,2011-04-03T08:54:00Z,28.1930,-82.7890,22.02,1111122 
COMPS,ioos:station:USF.COMPS:ANC:1,2011-04-03T11:00:00Z,28.1930,-82.7890,18.71,1111122 
COMPS,ioos:station:USF.COMPS:ANC:1,2011-04-03T11:06:00Z,28.1930,-82.7890,18.45,1111122 
COMPS,ioos:station:USF.COMPS:ANC:1,2011-04-03T11:12:00Z,28.1930,-82.7890,18.31,1111122 
COMPS,ioos:station:USF.COMPS:ANC:1,2011-04-03T11:18:00Z,28.1930,-82.7890,18.03,1111122 
COMPS,ioos:station:USF.COMPS:ANC:1,2011-04-03T11:24:00Z,28.1930,-82.7890,17.6,1111122 
COMPS,ioos:station:USF.COMPS:ANC:1,2011-04-03T11:30:00Z,28.1930,-82.7890,17.49,1111122 
COMPS,ioos:station:USF.COMPS:ANC:1,2011-04-03T11:36:00Z,28.1930,-82.7890,17.62,1111122 
COMPS,ioos:station:USF.COMPS:ANC:1,2011-04-03T11:42:00Z,28.1930,-82.7890,17.64,1111122 
COMPS,ioos:station:USF.COMPS:ANC:1,2011-04-03T11:48:00Z,28.1930,-82.7890,17.66,1111122 
COMPS,ioos:station:USF.COMPS:ANC:1,2011-04-03T11:54:00Z,28.1930,-82.7890,17.7,1111122 
COMPS,ioos:station:USF.COMPS:ANC:1,2011-04-03T14:00:00Z,28.1930,-82.7890,21.57,1111122 
COMPS,ioos:station:USF.COMPS:ANC:1,2011-04-03T14:06:00Z,28.1930,-82.7890,21.82,1111122 
COMPS,ioos:station:USF.COMPS:ANC:1,2011-04-03T14:12:00Z,28.1930,-82.7890,21.98,1111122 
COMPS,ioos:station:USF.COMPS:ANC:1,2011-04-03T14:18:00Z,28.1930,-82.7890,21.97,1111122 
COMPS,ioos:station:USF.COMPS:ANC:1,2011-04-03T14:24:00Z,28.1930,-82.7890,22.34,1111122 
COMPS,ioos:station:USF.COMPS:ANC:1,2011-04-03T14:30:00Z,28.1930,-82.7890,22.53,1111122 
COMPS,ioos:station:USF.COMPS:ANC:1,2011-04-03T14:36:00Z,28.1930,-82.7890,22.77,1111122 
COMPS,ioos:station:USF.COMPS:ANC:1,2011-04-03T14:42:00Z,28.1930,-82.7890,23.0,1111122 
COMPS,ioos:station:USF.COMPS:ANC:1,2011-04-03T14:48:00Z,28.1930,-82.7890,23.02,1111122 
COMPS,ioos:station:USF.COMPS:ANC:1,2011-04-03T14:54:00Z,28.1930,-82.7890,23.16,1111122 
COMPS,ioos:station:USF.COMPS:ANC:1,2011-04-03T17:00:00Z,28.1930,-82.7890,25.96,1111122 
COMPS,ioos:station:USF.COMPS:ANC:1,2011-04-03T17:06:00Z,28.1930,-82.7890,25.94,1111122 
COMPS,ioos:station:USF.COMPS:ANC:1,2011-04-03T17:12:00Z,28.1930,-82.7890,25.99,1111122 
COMPS,ioos:station:USF.COMPS:ANC:1,2011-04-03T17:18:00Z,28.1930,-82.7890,26.08,1111122 
COMPS,ioos:station:USF.COMPS:ANC:1,2011-04-03T17:24:00Z,28.1930,-82.7890,26.1,1111122 
COMPS,ioos:station:USF.COMPS:ANC:1,2011-04-03T17:30:00Z,28.1930,-82.7890,26.15,1111122 
COMPS,ioos:station:USF.COMPS:ANC:1,2011-04-03T17:36:00Z,28.1930,-82.7890,26.29,1111122 
COMPS,ioos:station:USF.COMPS:ANC:1,2011-04-03T17:42:00Z,28.1930,-82.7890,26.49,1111122 
COMPS,ioos:station:USF.COMPS:ANC:1,2011-04-03T17:48:00Z,28.1930,-82.7890,26.22,1111122 
COMPS,ioos:station:USF.COMPS:ANC:1,2011-04-03T17:54:00Z,28.1930,-82.7890,26.62,1111122 
COMPS,ioos:station:USF.COMPS:ANC:1,2011-04-03T20:00:00Z,28.1930,-82.7890,28.21,1111122 
COMPS,ioos:station:USF.COMPS:ANC:1,2011-04-03T20:06:00Z,28.1930,-82.7890,28.24,1111122 
COMPS,ioos:station:USF.COMPS:ANC:1,2011-04-03T20:12:00Z,28.1930,-82.7890,28.25,1111122 
COMPS,ioos:station:USF.COMPS:ANC:1,2011-04-03T20:18:00Z,28.1930,-82.7890,28.28,1111122 
COMPS,ioos:station:USF.COMPS:ANC:1,2011-04-03T20:24:00Z,28.1930,-82.7890,28.29,1111122 
COMPS,ioos:station:USF.COMPS:ANC:1,2011-04-03T20:30:00Z,28.1930,-82.7890,28.39,1111122 
COMPS,ioos:station:USF.COMPS:ANC:1,2011-04-03T20:36:00Z,28.1930,-82.7890,28.39,1111122 
COMPS,ioos:station:USF.COMPS:ANC:1,2011-04-03T20:42:00Z,28.1930,-82.7890,28.49,1111122 
COMPS,ioos:station:USF.COMPS:ANC:1,2011-04-03T20:48:00Z,28.1930,-82.7890,28.44,1111122 
COMPS,ioos:station:USF.COMPS:ANC:1,2011-04-03T20:54:00Z,28.1930,-82.7890,28.62,1111122 
COMPS,ioos:station:USF.COMPS:ANC:1,2011-04-03T23:00:00Z,28.1930,-82.7890,24.39,1111122 
COMPS,ioos:station:USF.COMPS:ANC:1,2011-04-03T23:06:00Z,28.1930,-82.7890,24.42,1111122 
COMPS,ioos:station:USF.COMPS:ANC:1,2011-04-03T23:12:00Z,28.1930,-82.7890,24.42,1111122 
COMPS,ioos:station:USF.COMPS:ANC:1,2011-04-03T23:18:00Z,28.1930,-82.7890,24.42,1111122 
COMPS,ioos:station:USF.COMPS:ANC:1,2011-04-03T23:24:00Z,28.1930,-82.7890,24.31,1111122 
COMPS,ioos:station:USF.COMPS:ANC:1,2011-04-03T23:30:00Z,28.1930,-82.7890,24.29,1111122 
COMPS,ioos:station:USF.COMPS:ANC:1,2011-04-03T23:36:00Z,28.1930,-82.7890,24.24,1111122 
COMPS,ioos:station:USF.COMPS:ANC:1,2011-04-03T23:42:00Z,28.1930,-82.7890,24.17,1111122 
COMPS,ioos:station:USF.COMPS:ANC:1,2011-04-03T23:48:00Z,28.1930,-82.7890,24.07,1111122 
COMPS,ioos:station:USF.COMPS:ANC:1,2011-04-03T23:54:00Z,28.1930,-82.7890,24.07,1111122 
COMPS,ioos:station:USF.COMPS:ANC:1,2011-04-04T02:00:00Z,28.1930,-82.7890,22.94,1111122 
COMPS,ioos:station:USF.COMPS:ANC:1,2011-04-04T02:06:00Z,28.1930,-82.7890,22.96,1111122 
COMPS,ioos:station:USF.COMPS:ANC:1,2011-04-04T02:12:00Z,28.1930,-82.7890,22.99,1111122 
COMPS,ioos:station:USF.COMPS:ANC:1,2011-04-04T02:18:00Z,28.1930,-82.7890,23.08,1111122 
COMPS,ioos:station:USF.COMPS:ANC:1,2011-04-04T02:24:00Z,28.1930,-82.7890,22.8,1111122 
COMPS,ioos:station:USF.COMPS:ANC:1,2011-04-04T02:30:00Z,28.1930,-82.7890,22.45,1111122 
COMPS,ioos:station:USF.COMPS:ANC:1,2011-04-04T02:36:00Z,28.1930,-82.7890,22.19,1111122 
COMPS,ioos:station:USF.COMPS:ANC:1,2011-04-04T02:42:00Z,28.1930,-82.7890,22.02,1111122 
COMPS,ioos:station:USF.COMPS:ANC:1,2011-04-04T02:48:00Z,28.1930,-82.7890,22.06,1111122 
COMPS,ioos:station:USF.COMPS:ANC:1,2011-04-04T02:54:00Z,28.1930,-82.7890,22.2,1111122 
COMPS,ioos:station:USF.COMPS:ANC:1,2011-04-04T05:00:00Z,28.1930,-82.7890,21.06,1111122 
COMPS,ioos:station:USF.COMPS:ANC:1,2011-04-04T05:06:00Z,28.1930,-82.7890,20.97,1111122 
COMPS,ioos:station:USF.COMPS:ANC:1,2011-04-04T05:12:00Z,28.1930,-82.7890,20.95,1111122 
COMPS,ioos:station:USF.COMPS:ANC:1,2011-04-04T05:18:00Z,28.1930,-82.7890,20.96,1111122 
COMPS,ioos:station:USF.COMPS:ANC:1,2011-04-04T05:24:00Z,28.1930,-82.7890,21.09,1111122 
COMPS,ioos:station:USF.COMPS:ANC:1,2011-04-04T05:30:00Z,28.1930,-82.7890,20.84,1111122 
COMPS,ioos:station:USF.COMPS:ANC:1,2011-04-04T05:36:00Z,28.1930,-82.7890,20.73,1111122 
COMPS,ioos:station:USF.COMPS:ANC:1,2011-04-04T05:42:00Z,28.1930,-82.7890,20.7,1111122 
COMPS,ioos:station:USF.COMPS:ANC:1,2011-04-04T05:48:00Z,28.1930,-82.7890,20.6,1111122 
COMPS,ioos:station:USF.COMPS:ANC:1,2011-04-04T05:54:00Z,28.1930,-82.7890,20.54,1111122 
COMPS,ioos:station:USF.COMPS:ANC:1,2011-04-04T08:00:00Z,28.1930,-82.7890,20.29,1111122 
COMPS,ioos:station:USF.COMPS:ANC:1,2011-04-04T08:06:00Z,28.1930,-82.7890,20.41,1111122 